sat.trackr.live / text

‹ back to catalog

STARLINK-32567

NORAD 61930 · 2024-207U

PAYLOAD ACTIVE UNKNOWN

§ Identity

Operator
Country
US
Launch date
2024-11-11
Launch site
AFETR
Launch vehicle
Mass (kg)
RCS (m²)

Purposes: comms

External: N2YO · Heavens-Above · Gunter

§ Orbital elements

Epoch: 2026-09-21T16:05:09.324384Z

Period
94.27 min
Inclination
42.9994°
Eccentricity
0.0000941
Mean motion
15.27572492 rev/d
Perigee alt
482.4 km
Apogee alt
483.7 km
Semi-major
6,861.2 km
B*
6.2706e-4
RAAN
251.5647°
Arg perigee
260.9262°
Mean anomaly
99.1483°
Rev number
10,532

§ Raw data

STARLINK-325671 61930U 24207U   26264.67024681  .00017029  00000+0  62706-3 0  99902 61930  42.9994 251.5647 0000941 260.9262  99.1483 15.27572492105328

JSON: /api/v1/satellites/61930 · /tle

For live sub-satellite position, see the globe view (requires WebGL).

§ Visibility from observer

Set your observer location to see the next 7 days of passes ≥ 10°. The values pass through the URL so the page stays shareable.

No JS? Fill the form by hand. The geolocation button needs JavaScript.